Theta_e
320 320 319 318 317 316 315 314 314 313 312 311 310 308 307 306 306 305 304 303 303 302 301 301 301 300 299 299 299 298 298 298 298 299 299 298 297 297 296 296 296 295 295 294 294 294 293 293 293 292 292 293 292 291 291 290 290 290 290 290 289 289 288 288 288 287 287 287 288
320 319 319 318 317 316 314 313 313 312 312 311 309 308 307 307 306 305 304 303 303 302 301 301 300 299 299 299 299 299 298 298 298 298 298 297 297 296 296 296 295 295 295 294 294 293 293 293 292 292 292 292 292 291 291 290 290 290 290 289 289 289 289 288 288 287 287 287 287
319 319 318 317 316 315 313 312 312 311 310 310 309 308 308 307 306 305 304 303 303 302 301 300 300 299 298 299 299 299 298 298 298 298 297 297 296 296 295 295 295 295 295 294 293 293 293 292 292 293 293 292 291 291 291 291 291 290 289 289 289 289 289 288 288 287 287 287 287
318 318 317 316 315 314 313 312 311 311 310 309 308 308 307 307 306 305 304 303 302 301 300 300 300 299 299 299 298 298 298 299 298 297 296 296 296 295 295 295 295 294 294 293 293 292 292 292 292 292 292 291 291 290 290 291 291 290 290 289 289 289 288 288 288 288 288 287 287
317 317 316 315 314 313 313 312 311 310 309 309 308 307 307 307 306 304 303 303 302 301 300 299 299 299 299 299 298 298 298 298 298 297 296 295 295 295 295 295 294 294 293 293 292 292 291 292 292 292 291 291 291 291 290 290 290 289 289 290 290 289 288 288 288 288 288 288 287
316 316 315 315 313 312 312 311 310 310 310 309 308 307 306 306 305 304 303 302 301 300 299 299 300 300 299 298 298 297 297 297 297 296 295 295 294 294 294 294 293 293 293 293 292 291 291 291 291 291 291 291 290 290 290 290 289 289 289 289 289 289 288 288 288 288 288 287 286
314 315 314 314 313 312 312 311 311 310 309 309 307 306 305 305 304 303 302 301 301 300 300 300 300 299 299 298 297 297 296 296 295 295 294 294 294 294 294 294 293 293 293 292 292 292 291 291 291 291 292 292 291 290 290 290 289 288 288 288 288 288 288 287 288 288 287 286 286
313 313 313 313 312 312 311 311 310 310 309 308 307 306 305 304 303 302 302 301 300 300 300 300 299 298 298 297 297 296 296 295 295 294 294 294 294 293 293 293 293 292 292 292 292 292 291 291 291 291 291 291 291 290 290 289 288 288 287 287 288 288 288 287 287 287 287 286 286
312 312 312 312 312 311 311 310 310 309 308 307 306 305 304 303 302 302 301 300 300 299 299 298 298 297 297 296 296 296 295 295 294 294 294 293 293 293 293 293 293 292 292 292 292 292 291 291 291 290 290 290 290 290 289 289 288 288 287 287 287 287 287 287 287 287 287 286 286
311 311 311 311 311 310 310 309 309 308 307 306 305 305 304 304 302 301 300 300 299 299 298 297 297 297 296 295 295 295 295 294 294 293 293 293 293 293 292 292 292 292 292 292 292 292 291 291 290 290 290 290 289 289 289 289 288 288 288 288 288 287 287 287 286 286 286 286 285
310 311 311 311 310 309 308 307 307 306 306 305 304 303 303 303 302 301 300 299 298 298 297 297 296 296 295 295 295 295 294 294 293 293 293 293 293 293 292 292 292 292 292 292 292 291 291 290 290 289 289 289 289 289 288 289 288 288 287 288 287 287 287 287 286 286 286 286 285
309 309 308 308 308 307 307 306 306 305 304 304 303 302 301 301 300 300 299 298 297 297 296 296 296 296 295 295 294 294 294 293 293 293 292 292 292 292 292 292 292 292 292 291 291 291 291 290 289 289 289 289 289 289 288 288 288 288 287 287 287 287 287 287 286 286 286 286 285
307 306 306 306 305 305 305 305 304 304 303 302 302 301 301 300 299 299 298 297 297 297 296 296 296 295 295 295 294 294 293 293 293 292 292 292 292 292 292 291 291 291 291 291 291 291 290 289 289 289 289 289 289 289 289 288 288 288 287 287 287 287 287 286 286 286 286 286 286
304 304 304 304 304 304 304 303 303 303 302 301 301 300 300 299 299 299 298 297 297 296 296 295 295 295 295 294 294 293 293 293 292 292 292 292 292 291 291 291 291 291 291 291 290 290 290 289 289 289 288 288 288 289 289 289 288 288 288 287 287 287 287 286 286 286 286 286 286
302 302 302 302 302 302 303 302 302 301 301 300 300 300 299 299 299 298 298 297 296 296 295 295 295 295 295 294 293 293 293 292 292 292 292 292 292 291 291 291 291 291 291 290 290 290 289 289 289 289 288 288 288 288 289 289 288 288 288 288 288 287 287 287 286 286 286 285 285
301 301 301 301 301 301 301 301 301 300 300 300 299 299 299 298 298 298 297 296 295 295 295 294 294 294 294 294 293 293 292 292 292 291 291 291 291 291 291 291 291 291 291 290 290 289 289 289 289 289 288 288 288 288 288 289 289 288 289 288 288 288 288 287 287 286 286 286 286
300 300 300 300 300 300 300 300 300 300 299 299 298 298 298 298 297 297 296 295 295 294 293 293 293 293 293 293 293 292 292 291 291 291 291 291 291 291 291 291 291 291 291 290 290 289 289 289 289 289 289 289 289 289 289 289 288 288 288 288 288 288 287 288 287 287 286 286 286
300 300 299 300 300 300 299 299 299 299 298 298 297 296 296 296 295 295 295 294 293 293 292 292 292 292 292 292 292 292 291 291 291 291 291 291 291 291 291 291 291 291 291 290 289 289 289 289 288 289 289 289 289 289 289 289 288 288 288 288 288 287 287 288 287 287 286 286 287
300 299 299 299 299 299 299 299 298 298 297 296 296 295 294 294 294 293 293 292 292 292 292 291 291 291 291 291 291 291 291 290 290 291 291 291 291 291 291 291 291 291 291 290 289 289 289 288 289 289 289 289 289 289 289 289 288 288 288 288 287 287 287 287 287 287 287 287 287
299 299 299 299 299 299 298 298 297 296 295 295 294 293 293 292 292 292 291 291 292 291 291 291 291 290 290 290 290 290 291 291 290 291 291 291 291 291 291 291 291 291 291 290 289 289 288 288 288 288 289 289 289 290 289 289 289 289 288 288 288 287 287 287 288 288 288 287 287
298 298 299 299 299 298 297 296 296 295 294 293 293 292 292 291 291 291 291 291 291 291 291 291 291 291 290 290 290 290 291 291 291 291 291 291 291 291 291 291 291 291 290 289 289 289 288 288 288 288 289 289 290 289 289 290 289 289 288 288 289 289 289 289 289 289 289 288 288
298 298 298 298 297 297 296 295 294 293 293 292 292 292 291 291 291 291 291 291 291 291 291 291 291 291 291 291 291 291 291 292 291 291 291 291 291 291 292 292 292 291 290 288 288 288 289 289 289 289 289 289 288 288 289 289 289 288 287 288 288 288 288 289 289 289 289 289 288
298 297 297 297 296 296 295 294 293 293 292 292 292 291 291 291 291 291 291 291 291 291 291 291 291 291 291 291 291 291 291 291 291 291 291 291 291 291 291 292 291 291 290 289 287 288 288 289 289 289 288 287 287 287 288 289 288 287 286 287 287 287 288 288 288 288 288 288 289
297 297 297 297 296 295 294 293 293 293 292 292 291 291 291 291 291 291 291 291 291 291 291 291 291 291 292 291 291 291 291 291 291 291 291 291 291 291 291 291 291 291 290 289 288 289 289 290 288 287 287 286 287 288 288 287 287 286 286 286 286 287 287 288 288 288 288 288 289
297 297 296 296 295 294 294 293 292 292 292 292 291 291 291 291 291 290 290 290 290 290 290 291 291 291 291 291 291 291 291 291 291 291 290 291 291 291 291 291 292 292 292 291 293 294 294 294 290 288 287 286 287 288 287 286 286 286 287 287 287 287 287 287 288 288 288 288 288
297 296 296 295 295 294 293 292 292 292 292 291 291 291 291 290 290 290 290 290 290 290 290 290 291 291 292 291 291 291 291 291 291 291 290 290 290 290 291 291 292 292 292 294 296 297 297 297 295 293 290 287 288 287 286 285 286 287 287 287 287 287 287 287 287 288 288 288 288
296 296 295 295 294 293 293 292 292 292 292 291 291 291 290 290 290 290 290 290 290 290 290 290 291 292 292 291 290 290 290 290 291 290 290 290 290 290 290 290 291 291 292 295 297 297 298 298 297 296 293 289 289 287 286 286 287 287 288 288 288 288 287 287 287 288 288 289 288
295 295 295 294 294 293 293 292 292 292 291 291 291 291 290 290 290 290 290 290 290 290 290 290 291 291 291 290 290 290 290 290 290 290 290 290 290 290 290 290 290 291 293 296 297 298 298 298 298 297 295 292 290 288 288 287 288 288 288 288 288 288 288 288 288 289 289 289 289
295 295 294 294 293 293 292 292 292 292 291 291 291 291 290 290 290 290 290 290 290 290 290 290 290 290 290 289 289 289 290 290 290 290 290 290 290 290 290 290 290 291 294 297 298 298 299 299 299 298 297 296 292 289 288 289 289 289 290 290 289 289 289 289 289 289 289 289 289
295 294 294 294 293 293 292 292 292 292 291 291 291 290 290 290 289 289 290 289 289 289 289 290 290 289 289 288 289 289 289 289 290 290 290 290 290 290 290 291 290 291 293 297 298 298 299 299 299 299 299 298 295 292 290 289 289 290 290 290 289 288 288 288 288 288 288 289 289
294 294 294 294 293 293 292 292 292 291 291 291 290 290 290 289 289 289 289 289 289 290 290 289 289 288 288 288 288 288 288 288 289 289 290 290 290 290 290 290 290 291 293 297 298 298 299 299 299 299 299 299 297 293 291 290 290 290 290 290 289 288 288 288 287 287 287 288 288
294 294 294 293 293 293 292 292 292 291 291 290 290 289 289 289 289 288 289 289 289 290 289 288 288 288 288 287 287 287 288 288 288 289 289 290 290 290 290 291 290 291 293 297 298 298 299 299 299 299 299 299 298 295 292 290 290 290 289 289 288 288 288 289 288 287 286 287 287
294 294 293 293 293 292 292 292 291 291 290 290 289 289 289 288 288 288 288 289 290 289 289 288 288 288 288 288 287 287 288 288 289 290 291 291 290 290 290 291 291 293 295 297 298 298 299 299 299 299 299 299 297 294 291 290 290 290 289 289 289 288 288 288 288 287 287 287 287
293 293 293 293 292 292 292 291 291 290 290 289 289 289 288 288 288 288 288 289 289 289 289 289 288 288 288 288 288 288 288 290 289 289 290 290 290 290 290 291 291 293 296 297 298 298 298 299 299 299 299 299 297 293 291 289 289 289 289 288 288 289 288 288 287 287 287 287 288
293 293 292 292 292 292 291 291 290 290 289 289 289 288 288 288 288 288 289 290 290 289 288 288 288 288 288 288 288 288 289 290 289 289 290 290 290 291 291 290 291 293 296 297 297 298 298 299 299 299 299 298 295 292 289 288 288 288 288 288 288 289 289 289 288 287 287 287 287
292 292 292 291 291 291 291 290 290 289 289 288 288 288 288 288 288 288 289 290 290 289 288 288 288 288 288 288 288 289 289 289 289 290 290 291 291 290 290 290 290 293 295 297 297 297 298 298 299 299 298 297 293 290 289 288 288 288 288 288 288 288 288 289 288 287 287 286 287
292 292 291 291 291 290 290 290 289 289 288 288 288 288 288 288 288 289 289 290 289 289 288 288 288 287 287 287 288 288 288 288 289 290 291 291 291 290 290 290 290 292 294 296 297 297 298 298 298 298 297 294 291 289 288 288 288 288 288 288 288 288 288 289 289 288 287 286 287
292 291 291 291 290 290 290 289 289 289 288 288 288 288 288 288 288 289 290 290 289 288 288 288 287 287 287 287 288 288 289 289 290 291 291 291 291 290 290 290 289 291 293 296 297 297 297 298 298 298 297 293 290 289 288 288 287 288 288 288 288 288 288 289 288 288 287 286 289
292 291 291 290 290 290 289 289 289 288 288 288 288 288 289 288 289 289 290 290 289 288 288 287 287 287 288 289 289 289 289 290 291 291 291 290 290 291 291 290 289 290 292 295 297 297 297 297 298 298 297 294 290 289 288 288 287 287 287 288 288 287 287 288 288 288 287 286 291
291 291 291 290 290 289 289 289 288 288 288 288 288 288 289 289 289 290 290 290 289 288 288 288 288 288 289 290 290 289 289 290 290 290 291 290 290 292 292 291 289 290 291 295 296 297 297 297 297 298 297 294 290 289 288 287 287 287 287 288 288 287 287 287 287 287 287 286 289
291 291 290 290 289 289 289 288 288 288 288 288 289 289 289 290 290 290 289 289 288 288 288 288 288 289 290 291 290 290 289 289 289 290 290 290 290 292 292 290 289 289 290 293 295 297 297 297 297 297 297 294 290 289 288 287 287 287 287 287 287 287 287 287 287 287 287 286 286
Wind_Speed
9 8 7 7 7 7 6 6 6 7 7 7 8 8 8 8 8 7 7 6 7 6 6 6 6 6 7 8 9 9 9 9 9 9 9 8 7 7 7 7 7 7 6 6 5 5 5 4 3 2 2 2 2 2 2 2 2 2 2 2 2 2 2 2 1 1 1 1 1
9 8 8 8 7 6 6 6 6 6 6 6 7 8 8 8 8 7 7 7 6 6 6 5 6 7 8 9 9 9 9 9 10 9 9 8 8 8 7 7 7 7 7 6 6 5 4 4 4 3 2 2 2 2 2 2 2 3 2 2 2 2 2 2 1 1 1 1 1
9 8 8 9 8 7 7 6 6 7 7 6 6 7 7 7 6 7 7 6 6 6 6 6 7 8 9 10 9 8 9 9 9 9 9 8 8 8 7 7 7 7 7 6 6 5 4 5 4 3 3 2 2 2 2 2 3 3 2 2 2 2 2 1 1 1 1 1 1
9 9 9 9 10 9 8 7 8 8 8 7 6 7 6 6 6 6 6 6 6 6 6 6 7 8 9 9 9 8 8 9 10 9 9 8 8 8 8 8 7 7 7 6 6 6 5 5 4 3 3 3 3 3 3 3 3 3 2 2 2 2 2 1 1 1 1 1 1
9 9 9 9 10 10 9 8 9 9 8 7 7 6 6 5 5 5 6 7 6 6 7 8 8 8 9 9 9 9 9 9 10 9 9 9 9 8 8 8 8 7 7 6 6 6 6 5 4 3 3 3 3 3 3 3 3 3 2 2 2 2 2 1 1 1 1 1 1
8 9 9 9 10 9 8 8 9 9 8 7 8 8 7 6 6 6 7 7 7 8 9 10 9 9 9 10 10 10 9 9 9 9 9 9 8 8 8 8 8 7 7 6 6 6 6 5 4 3 3 2 2 2 2 3 3 3 2 2 2 2 2 1 1 1 1 1 1
8 9 9 9 10 9 9 9 9 9 8 8 9 9 9 8 8 9 9 8 8 8 9 9 9 10 10 10 10 10 9 9 9 9 9 9 9 9 9 8 8 7 7 7 7 6 6 5 4 3 3 3 2 2 2 3 3 3 3 2 1 1 2 2 1 1 1 1 1
8 9 9 10 10 10 10 10 9 8 8 7 9 10 11 10 11 11 10 9 8 8 8 8 9 10 11 11 10 10 10 10 9 9 9 9 9 9 9 8 8 7 7 7 7 6 6 5 4 4 3 3 2 2 2 3 3 3 3 2 1 1 1 1 1 2 2 2 2
7 8 9 9 10 10 10 10 10 9 9 8 9 10 11 11 12 12 11 9 9 9 8 8 10 11 11 11 11 10 10 10 10 10 9 9 10 10 9 8 8 8 7 6 6 7 6 5 4 4 3 3 3 3 3 4 4 3 3 2 1 1 1 1 1 2 2 2 3
7 8 8 9 9 9 9 9 9 9 9 9 10 10 11 11 11 11 10 8 9 9 8 8 10 11 11 11 11 10 10 10 10 10 10 10 10 10 10 9 9 8 8 7 6 6 6 5 4 4 4 3 3 4 4 4 4 4 3 2 2 1 1 1 1 1 2 2 3
7 7 8 8 9 9 9 9 9 9 9 9 10 10 10 10 10 9 8 8 9 9 9 10 11 11 11 11 10 10 10 9 9 10 10 10 10 10 10 9 9 9 8 7 6 6 5 4 5 5 4 4 4 4 4 4 4 4 3 2 2 2 1 1 1 1 2 2 3
6 6 6 7 8 9 9 9 8 8 8 9 10 10 9 9 9 9 9 9 10 10 10 10 11 12 11 10 10 10 10 10 10 10 10 10 10 10 9 9 9 8 8 7 6 5 5 5 5 5 5 5 4 4 4 5 4 4 4 3 3 3 2 3 2 2 2 2 3
5 5 6 6 8 8 9 8 7 7 8 9 9 9 9 9 9 10 11 11 11 10 10 10 11 12 11 11 11 10 10 10 10 10 10 10 10 9 9 8 8 8 7 7 6 5 5 5 6 6 6 5 4 4 5 5 5 4 4 4 3 3 3 3 3 3 2 2 3
5 6 6 7 7 8 8 7 7 7 7 8 8 8 8 8 9 10 11 11 11 10 10 10 10 10 10 11 11 11 11 11 11 11 11 10 10 9 9 8 8 7 7 6 6 6 6 6 6 6 6 6 5 5 5 5 5 5 5 4 4 4 4 3 3 3 3 3 3
6 6 7 7 7 7 7 6 6 6 7 7 7 8 8 8 8 9 9 10 10 10 9 9 9 9 10 11 11 12 12 11 12 12 11 11 10 10 9 8 8 7 7 6 6 6 6 6 6 6 6 6 5 5 5 5 5 5 5 5 4 4 4 4 3 3 3 3 3
6 6 6 6 6 6 6 5 5 5 6 6 6 7 7 7 7 7 8 8 8 8 8 8 8 8 8 9 10 11 11 11 11 11 11 11 10 10 9 9 8 8 7 6 6 5 5 5 5 6 5 5 5 5 4 4 4 4 4 4 4 4 4 4 4 4 4 4 4
7 7 7 7 7 7 6 6 5 5 5 6 6 6 6 6 6 6 6 7 7 7 7 8 7 7 7 8 8 8 9 9 10 10 10 10 9 9 9 8 8 8 7 7 6 6 5 5 5 5 5 5 4 4 4 4 4 3 4 4 4 4 4 4 4 4 4 4 5
8 8 8 8 8 8 7 7 6 6 6 6 6 6 5 5 6 6 6 6 7 7 8 8 7 7 7 7 6 6 6 7 7 8 8 8 8 8 8 8 8 7 7 7 6 6 6 5 5 4 4 4 4 4 4 3 3 3 3 3 3 4 4 4 5 5 5 5 6
9 9 9 9 9 8 8 8 7 7 7 7 7 6 6 6 7 7 6 6 7 8 8 8 7 7 7 7 6 6 5 6 7 7 7 8 8 8 8 8 8 8 7 7 6 6 6 6 5 5 4 4 4 3 3 3 3 3 3 4 4 4 5 5 5 5 5 6 6
8 8 9 8 8 8 7 7 7 7 7 7 8 8 8 8 8 9 8 8 8 9 9 9 8 7 7 7 6 6 6 5 7 7 8 8 8 8 8 8 8 8 7 7 6 6 6 5 5 5 5 5 4 4 4 4 4 4 4 4 5 5 6 6 6 6 6 6 7
7 7 7 7 7 6 6 6 6 7 7 8 9 9 9 10 10 10 10 10 10 10 10 10 10 9 9 8 8 8 7 6 7 8 8 8 8 8 8 8 8 7 7 6 6 6 6 5 5 5 5 5 5 5 5 5 5 5 5 5 5 6 6 7 7 7 7 7 7
5 5 6 6 6 6 7 7 7 8 8 9 9 10 10 10 11 11 11 12 12 12 12 12 12 12 12 11 11 9 8 7 7 7 8 8 8 7 7 7 8 7 7 6 6 6 6 5 5 5 5 5 5 5 6 6 6 6 6 6 6 6 6 7 7 7 7 8 8
6 5 6 7 7 8 8 8 9 9 10 10 10 10 11 11 11 11 12 12 12 12 13 12 12 13 13 12 11 10 9 8 7 7 7 7 7 7 7 7 7 7 7 7 6 6 6 5 5 5 4 4 5 5 5 6 5 5 5 5 5 5 6 6 6 6 7 7 7
7 7 6 6 8 9 9 10 10 10 11 11 11 11 11 11 11 11 11 11 11 11 11 10 10 10 11 10 10 10 9 9 8 8 7 7 7 7 7 6 7 7 7 6 6 7 7 5 5 4 4 4 4 5 5 5 5 5 5 5 5 5 6 6 6 6 7 7 7
8 8 8 7 8 9 9 10 10 10 11 11 11 11 11 11 11 10 10 10 10 10 9 9 8 8 8 8 8 8 9 9 9 8 8 8 7 7 7 6 6 6 6 6 9 11 11 8 6 5 4 4 4 4 4 4 4 5 5 5 6 6 6 7 7 7 8 8 8
8 8 8 8 9 9 9 10 10 10 10 10 10 10 10 10 10 10 10 9 9 9 9 8 8 8 8 8 8 8 8 8 8 9 9 8 8 7 6 6 6 5 5 8 12 14 14 13 11 8 6 4 4 4 4 4 5 5 6 6 6 7 7 7 8 8 8 8 8
8 8 8 8 9 9 9 9 9 9 9 9 10 10 10 10 9 9 10 9 9 8 8 8 8 8 8 7 8 8 8 7 7 8 8 8 8 8 7 6 5 5 6 10 13 15 15 15 14 12 9 5 5 5 5 5 5 6 6 7 7 7 8 8 8 8 8 8 8
7 8 8 8 8 8 8 8 9 9 9 10 10 10 10 10 10 10 10 10 9 8 7 7 7 7 7 6 8 8 8 8 7 7 7 8 8 8 7 6 5 6 7 11 14 15 15 15 15 14 12 9 6 6 6 6 6 6 6 7 7 8 8 8 8 8 8 8 8
8 8 8 8 8 8 8 8 9 9 9 10 10 10 9 10 10 10 10 10 10 9 7 6 6 6 5 6 7 8 8 7 7 7 6 7 7 7 7 6 5 7 9 13 14 14 15 15 15 15 14 12 8 6 5 6 6 6 6 6 6 7 7 8 7 7 8 8 8
7 8 8 8 8 8 8 8 8 9 9 9 9 9 9 10 10 10 11 11 10 8 7 7 6 6 7 7 7 7 7 6 6 6 7 7 7 7 6 6 5 6 9 13 14 14 14 15 15 15 15 15 10 7 5 5 5 6 6 6 6 7 7 7 8 8 8 8 8
7 7 7 8 8 8 8 8 8 8 8 8 9 9 9 10 10 10 10 10 8 8 7 7 7 8 7 7 6 6 6 6 6 6 6 7 7 6 6 6 5 6 9 13 14 14 14 14 14 15 15 15 11 7 5 6 6 6 6 6 7 7 7 7 7 8 8 8 8
7 7 7 7 7 7 7 8 8 8 8 9 9 9 9 9 9 9 8 8 8 7 7 7 7 8 7 7 6 6 6 7 6 6 6 7 6 6 5 6 6 7 9 13 14 14 14 14 14 14 15 15 11 8 6 6 6 6 6 7 8 8 8 8 7 8 8 9 8
7 7 7 7 7 7 7 7 8 8 8 9 9 9 9 8 7 7 7 7 8 8 8 7 8 8 8 8 7 7 7 7 7 7 7 7 6 5 5 5 5 7 9 13 14 14 14 14 14 14 15 15 11 8 6 6 6 6 6 7 8 8 9 9 8 8 9 9 8
7 7 7 7 7 7 7 7 7 8 8 8 8 8 8 8 7 7 7 7 6 6 6 7 7 7 7 7 7 7 7 7 6 6 6 6 6 6 6 5 5 7 10 13 14 14 14 14 14 14 15 15 10 7 6 6 6 6 7 7 8 8 8 9 9 9 9 9 9
7 7 7 6 6 7 7 7 7 8 8 8 8 8 7 7 7 7 7 7 6 6 5 5 5 5 5 5 5 6 7 7 7 7 7 7 7 7 7 6 5 7 10 12 13 13 14 14 14 14 14 13 8 6 6 6 6 7 7 8 8 9 9 9 9 8 9 9 9
6 6 6 6 6 7 7 7 7 8 8 8 8 7 7 7 6 6 7 7 6 6 6 6 6 5 5 5 5 5 6 7 7 7 7 7 7 7 7 7 6 8 10 12 12 13 13 14 14 14 13 10 6 5 5 6 6 6 7 8 9 9 10 9 9 8 8 8 9
6 6 6 6 6 7 7 7 8 8 8 8 7 7 7 7 6 6 6 7 6 6 7 6 6 6 6 6 5 5 6 7 7 8 8 8 8 7 7 7 6 7 9 11 12 13 13 14 14 14 12 8 5 5 5 5 5 6 7 8 9 9 9 9 8 8 8 8 9
5 5 6 6 6 7 7 7 8 8 8 7 7 7 7 7 6 6 6 6 6 6 7 6 6 6 7 7 6 6 7 7 8 8 8 8 8 8 7 7 6 7 8 10 12 13 14 14 14 14 11 6 5 5 5 5 5 6 7 8 8 8 8 7 7 7 8 9 11
5 5 5 6 6 7 7 8 8 8 7 7 6 6 6 6 5 5 6 6 5 6 6 6 6 6 6 7 6 6 7 7 8 8 8 8 8 8 8 7 7 7 8 10 12 13 14 14 14 14 12 8 6 5 5 5 5 6 7 7 7 7 7 7 6 6 7 9 13
4 4 5 5 6 6 7 8 7 7 6 6 7 7 7 6 5 5 5 5 5 5 6 6 6 6 7 7 7 6 6 6 7 7 7 7 7 8 8 7 7 7 7 9 11 13 13 14 14 15 13 8 6 5 5 5 5 6 7 7 7 7 6 6 6 6 7 7 10
3 4 4 5 5 6 7 8 7 6 6 6 7 7 6 6 5 5 4 4 4 5 5 5 6 7 7 7 6 6 6 6 6 6 6 6 6 7 7 7 6 6 7 8 10 12 13 14 14 15 13 8 6 5 5 5 5 6 7 7 7 6 6 6 6 6 6 7 7
Wind_Direction
183 177 166 161 162 162 161 160 160 160 161 161 159 159 159 160 160 162 163 164 164 164 164 165 164 161 158 157 154 151 147 144 142 142 142 142 143 143 142 139 138 138 139 142 141 139 138 140 138 135 132 129 129 129 128 129 128 126 125 126 132 132 132 133 152 177 195 207 199
181 173 162 158 158 156 154 154 157 159 160 159 157 157 158 159 160 161 162 164 162 160 157 156 156 156 156 158 155 152 149 148 146 144 143 143 143 143 142 140 140 142 145 147 147 146 145 145 143 141 139 136 136 137 141 143 135 131 132 138 140 136 133 139 163 177 189 202 205
177 167 160 159 159 158 156 156 158 158 156 154 153 154 156 157 158 158 160 161 156 152 150 151 153 155 155 157 155 154 152 150 147 144 142 143 143 143 142 141 143 146 149 151 153 153 153 151 147 147 147 149 153 156 156 154 141 137 139 147 142 131 127 139 161 164 163 169 184
170 162 160 161 160 160 159 159 157 156 153 150 149 150 153 154 153 153 153 150 148 148 150 151 152 154 156 156 156 154 153 150 145 143 142 144 145 144 144 144 147 150 153 155 156 156 154 151 147 148 152 158 164 165 162 155 144 140 141 144 131 123 125 139 151 148 144 156 183
164 160 160 160 159 158 156 154 154 153 152 148 148 150 152 151 149 147 147 149 153 153 152 149 150 153 156 156 155 153 151 149 146 144 144 145 147 147 148 149 152 154 156 157 158 156 152 147 144 147 154 161 167 166 160 146 138 134 131 124 121 124 131 139 151 147 143 164 198
158 155 155 153 153 152 151 152 153 152 151 150 151 152 153 152 149 149 152 154 153 150 147 147 149 152 154 155 154 153 151 149 147 146 146 147 148 149 150 152 154 156 157 158 157 154 149 144 143 148 155 159 159 156 146 132 128 123 119 116 126 133 138 151 160 152 147 171 217
150 150 150 150 151 151 151 153 154 153 152 151 154 156 155 153 151 152 153 151 148 147 148 150 151 152 154 155 155 154 152 150 148 147 148 149 150 152 153 155 156 156 158 159 156 153 148 144 146 151 157 154 151 146 137 125 121 119 120 129 140 143 146 161 160 152 152 184 216
144 146 148 150 152 153 153 156 156 155 155 156 159 158 156 153 152 151 151 148 150 152 154 153 153 153 154 155 156 155 153 151 149 150 150 150 152 154 155 156 157 159 160 161 158 155 152 148 150 153 156 152 153 151 143 130 124 124 129 142 149 152 149 159 156 157 167 192 216
143 146 148 151 153 155 156 158 158 158 157 158 159 157 155 153 153 152 151 152 154 154 153 151 151 151 151 153 154 154 154 153 152 152 153 153 155 156 157 158 160 162 163 164 161 159 156 151 152 154 154 153 154 155 149 137 132 133 138 148 155 159 160 158 158 166 178 193 212
150 151 152 153 156 156 156 156 156 155 154 155 155 154 154 154 154 153 153 152 150 149 149 149 148 149 149 152 153 155 155 154 154 154 155 157 159 160 161 162 163 165 165 167 166 162 158 152 152 153 153 152 155 155 151 142 140 142 147 152 161 176 205 216 182 181 192 203 213
155 156 156 157 156 154 152 151 151 151 151 151 151 152 153 154 153 151 148 144 145 147 149 148 149 150 151 154 155 156 156 156 156 156 158 160 161 162 163 164 165 166 167 169 168 165 160 153 153 154 155 158 158 157 153 147 146 150 156 162 167 178 203 234 226 216 212 215 220
156 154 153 151 150 148 147 148 149 149 149 149 149 150 151 152 149 145 142 141 145 148 150 150 152 154 155 157 158 158 157 156 156 157 159 161 162 162 163 164 165 166 167 169 169 166 159 154 154 157 161 165 163 159 155 152 153 157 164 173 175 184 201 222 229 228 223 220 227
146 142 140 140 141 142 143 145 147 148 149 149 149 150 150 150 147 145 145 147 151 152 154 156 157 158 158 159 159 159 158 157 157 158 159 161 161 162 163 164 164 165 167 170 168 164 159 155 157 161 167 172 169 164 160 157 160 165 172 180 185 194 204 216 222 225 227 228 232
129 128 130 132 136 139 141 144 145 148 149 150 150 150 150 151 151 151 152 155 156 156 157 159 161 161 161 160 160 159 158 157 157 158 159 160 161 162 163 164 164 165 167 169 166 160 157 157 161 167 172 175 171 166 162 162 165 169 175 181 189 197 207 215 219 223 227 233 236
122 123 126 130 135 138 141 142 144 147 149 150 151 151 152 154 156 157 157 158 157 156 156 158 161 162 161 160 159 158 158 157 158 158 159 159 160 161 163 163 163 165 166 167 163 159 157 159 166 172 175 175 171 167 164 164 167 171 175 180 188 196 206 214 218 221 223 226 233
125 126 128 132 137 139 141 143 143 146 149 151 151 152 153 155 156 156 154 153 151 150 151 154 156 156 157 158 158 157 157 157 158 158 157 158 159 160 162 163 164 164 164 163 161 159 159 163 170 175 176 172 169 165 164 164 165 169 174 180 187 195 204 212 215 218 220 222 227
134 135 137 141 144 146 146 146 144 146 148 148 147 148 149 150 149 147 146 144 142 142 145 148 148 149 151 155 155 155 155 155 155 154 155 155 157 158 160 162 163 162 161 159 159 160 163 170 175 176 171 166 164 162 163 162 164 169 176 183 190 197 205 211 213 215 218 222 227
146 148 150 152 154 155 153 151 148 147 145 142 140 138 137 137 135 133 132 130 131 133 135 135 135 138 141 144 145 147 148 148 148 148 150 152 154 156 158 159 159 159 158 157 158 163 169 177 180 176 168 161 160 160 161 163 168 175 183 192 200 206 211 214 215 215 217 222 229
157 158 160 162 162 160 156 152 148 145 141 136 131 127 123 122 122 120 117 117 121 122 123 123 122 125 128 132 134 136 139 141 143 146 148 151 154 155 156 156 157 157 157 157 160 166 173 180 181 177 170 164 163 165 168 171 178 187 196 204 212 217 219 221 221 220 221 224 229
162 162 164 164 161 156 151 145 141 136 132 128 124 121 120 118 118 117 117 118 118 118 118 120 121 123 126 129 133 138 143 146 148 150 152 154 155 156 156 155 156 157 158 158 162 169 176 182 181 178 173 169 171 174 178 181 189 197 205 212 217 221 223 225 225 226 227 228 229
158 158 158 156 151 145 139 132 127 124 122 122 122 122 122 122 123 125 127 128 128 128 129 131 135 139 142 146 149 153 156 156 155 155 155 155 156 157 155 154 155 156 159 162 166 173 178 182 182 180 177 175 177 179 183 188 196 203 208 213 219 221 222 223 224 226 227 228 229
151 149 148 146 141 136 129 124 123 123 124 125 127 128 130 132 135 138 139 140 141 143 145 148 151 154 157 160 161 161 161 159 157 155 154 155 156 155 154 152 154 157 161 167 172 177 181 184 184 182 179 179 180 183 187 191 198 204 210 216 220 222 222 222 223 224 225 226 227
146 144 144 143 140 136 132 130 131 133 134 136 138 140 142 144 147 148 149 150 152 154 156 157 160 162 163 163 162 160 157 155 152 150 149 150 151 151 151 150 154 160 166 173 176 178 181 185 186 185 181 179 182 186 191 195 198 204 211 219 225 229 231 231 230 229 229 230 230
147 148 148 147 145 142 141 140 142 144 146 149 150 151 151 152 152 152 153 155 157 159 159 161 161 161 160 158 156 154 152 150 148 146 146 147 149 151 152 153 159 165 171 177 181 182 183 184 186 187 185 182 185 191 194 197 200 204 213 223 232 238 242 243 241 239 239 238 238
150 151 151 151 149 148 148 149 151 153 154 155 155 154 153 153 153 153 155 157 159 159 158 156 154 153 152 150 149 148 148 148 147 147 148 150 153 155 156 158 165 171 177 182 190 192 192 191 189 187 187 188 193 197 200 202 205 210 218 226 234 240 245 246 244 243 241 240 240
150 152 153 154 152 152 153 155 156 156 156 155 154 154 154 153 153 153 155 157 157 156 153 149 149 149 149 147 147 147 148 149 150 151 153 155 158 160 163 167 172 176 181 188 196 199 200 201 198 194 190 191 197 202 207 212 215 218 222 228 232 237 241 244 244 242 241 240 239
150 153 155 155 154 156 158 159 158 157 156 156 157 156 156 155 154 154 155 155 154 151 148 147 149 150 150 149 149 151 153 155 155 155 156 157 161 165 170 174 177 179 186 194 199 202 205 207 206 202 197 192 197 202 207 214 218 221 224 228 231 234 237 240 242 243 244 244 243
152 155 155 154 157 158 159 158 158 159 159 160 160 159 157 155 155 156 156 155 152 149 148 149 151 151 151 152 155 157 158 157 158 158 159 160 165 170 175 181 183 185 191 197 202 205 208 211 211 208 203 197 198 201 206 211 217 221 224 227 230 232 235 237 241 244 246 248 248
152 154 155 157 159 159 159 160 161 162 162 162 161 159 157 156 157 157 156 155 153 152 152 153 153 151 151 156 158 158 157 157 158 159 161 164 170 176 181 186 188 192 197 201 206 209 212 213 214 213 210 204 200 198 202 210 216 220 223 226 228 230 232 235 239 242 244 247 248
152 154 156 160 160 161 162 164 164 163 162 161 160 158 157 158 159 159 159 157 157 157 156 153 151 153 156 158 157 156 156 157 158 160 163 169 175 182 187 189 191 198 204 207 211 214 215 216 217 218 217 214 208 202 200 208 214 220 225 230 232 232 234 236 238 240 242 244 245
152 155 158 161 162 163 164 164 163 161 160 161 161 160 160 161 162 163 162 160 159 156 152 148 150 153 156 155 154 155 156 156 157 160 166 173 179 183 187 192 194 201 208 212 216 218 219 220 220 222 223 222 218 211 205 209 215 221 227 233 235 236 237 239 239 240 241 242 244
153 156 159 163 165 165 164 163 162 160 160 161 162 163 164 164 164 164 161 157 154 151 149 148 151 151 151 151 152 154 156 156 159 164 168 172 176 181 187 194 197 202 209 214 218 221 222 223 225 227 228 229 228 222 213 214 219 225 231 236 238 239 239 241 243 243 243 243 243
154 158 161 165 167 166 164 163 161 160 160 162 163 164 164 164 161 159 156 154 153 153 154 155 155 155 154 155 154 156 157 160 163 165 168 170 174 180 189 199 202 206 211 216 220 223 226 228 229 231 233 233 234 230 221 221 225 230 235 239 240 241 241 242 243 244 244 245 245
156 159 163 167 168 165 163 162 160 159 160 162 165 165 163 161 160 158 158 158 157 157 158 158 158 158 157 156 155 157 160 163 164 165 167 171 175 183 192 203 209 212 214 219 223 226 229 231 233 236 237 237 238 234 227 227 231 235 239 242 245 245 245 244 244 244 245 245 247
156 160 164 168 168 165 162 161 159 159 160 163 165 165 164 162 162 162 161 160 157 156 155 156 156 153 152 151 152 155 158 161 164 168 171 173 178 187 198 207 212 216 218 222 226 229 232 235 237 238 239 240 239 233 228 229 234 238 241 245 248 250 250 250 249 247 246 246 247
158 161 165 168 168 165 162 160 159 159 162 164 166 165 165 165 165 162 160 157 153 152 153 154 152 151 151 152 154 158 161 163 167 171 175 178 182 191 202 210 214 218 220 224 228 232 235 237 239 240 241 240 237 231 229 230 236 240 244 248 251 252 253 253 253 252 250 248 247
161 162 164 168 168 165 162 159 159 161 164 166 166 165 165 165 164 162 158 154 153 153 154 155 155 157 159 160 163 165 166 165 167 172 177 182 187 194 203 212 215 218 221 225 230 234 237 239 241 242 241 240 235 230 230 233 238 243 247 250 252 253 254 255 255 254 252 249 248
165 164 165 167 168 165 162 159 161 164 166 167 165 163 163 162 163 162 161 157 155 155 156 157 160 164 164 163 162 163 165 166 169 173 179 185 189 194 201 210 216 219 221 224 230 234 238 241 243 243 242 238 231 229 230 234 239 244 248 251 254 254 254 255 255 254 253 250 250
170 168 167 167 168 164 162 160 163 165 165 163 161 161 161 162 164 164 162 158 155 155 156 158 162 163 162 159 158 161 165 170 173 177 181 186 190 194 199 207 215 219 221 223 229 234 238 242 245 246 245 242 232 227 229 233 239 244 248 251 255 256 256 256 255 256 255 252 254
176 172 169 167 166 163 161 161 163 163 161 157 157 158 160 162 162 160 156 151 148 149 152 155 157 158 157 155 157 161 168 174 179 182 185 190 194 197 201 207 215 220 223 224 229 234 239 243 246 248 249 246 234 228 229 231 239 246 250 252 255 258 260 259 257 257 257 256 257
177 174 170 168 164 160 158 158 160 158 155 153 155 157 159 159 155 150 146 143 143 145 148 150 153 154 155 156 158 163 170 178 185 190 192 194 199 203 206 211 218 223 227 228 231 236 241 245 249 251 252 250 237 228 227 230 240 247 251 252 254 257 260 262 261 259 258 258 258